[[{"header":{"parameterUnit":"m.s-1","parameterCategory":1,"la1":30.2991,"la2":30.254,"lo1":-89.0895,"lo2":-89.0444,"dx":0.0017,"dy":0.0017,"nx":28,"ny":28,"refTime":"2022-12-23T15:00:00:Z","depth":0,"parameterNumber":2,"parameterNumberName":"U-component_of_WINDS"},"data":[0,0,0,0,0,0,0,0,0,0,0,0,0,0,0,0,0,0,0,0,0,0,0,0,0,0,0,0,0,0,0,0,0,0,0,0,0,0,0,0,0,0,0,0,0,0,0,0,0,0,0,0,0,0,0,0,0,0,3.8419,3.8419,0,3.8431,3.8431,3.8431,3.8386,3.8385,3.8384,3.8382,3.8394,3.8395,3.8397,0,0,0,0,0,0,0,0,0,0,0,0,0,3.8357,3.8359,3.8419,3.8419,3.8419,3.8431,3.8431,3.8431,3.8387,3.8385,3.8383,3.8382,3.8393,3.8395,3.8397,0,0,0,0,0,0,0,0,0,0,0,0,0,3.8378,3.8359,3.8419,3.8398,3.8396,3.8431,3.8431,3.8431,3.8387,3.8385,3.8383,3.8381,3.8393,3.8395,3.8397,3.8452,0,0,3.8404,3.8405,0,0,0,0,0,0,0,0,3.8377,3.838,3.8401,3.84,3.8398,3.8405,3.8414,3.8438,3.8387,3.839,3.8382,3.838,3.8399,3.8401,3.8407,3.8452,3.8453,3.8405,3.8406,3.8407,3.8408,0,0,0,0,0,0,0,3.8376,3.838,3.8423,3.8401,3.8399,3.8389,3.8389,3.8418,3.8406,3.839,3.8387,3.8389,3.8398,3.8405,3.8407,3.8453,3.8405,3.8407,3.8408,3.8409,3.8545,3.8547,0,0,0,0,0,0,3.8377,3.8379,3.8423,3.8424,3.8382,3.8391,3.8392,3.8405,3.8405,3.8404,3.8391,3.8387,3.8402,3.8405,3.8408,3.8472,3.8407,3.8409,3.8411,3.8543,3.8545,3.8548,0,0,0,0,0,0,3.8376,3.8381,3.8423,3.84,3.8405,3.8394,3.8409,3.8406,3.8413,3.8406,3.8403,3.84,3.8401,3.8404,3.8442,3.8472,3.841,3.8412,3.854,3.8543,3.8546,3.8601,0,0,0,0,0,0,3.8374,3.8381,3.8401,3.8401,3.8406,3.8456,3.8411,3.8408,3.8418,3.8413,3.8414,3.8413,3.84,3.8438,3.8444,3.8474,3.8414,3.8537,3.8542,3.8545,3.8597,3.8606,3.8614,0,0,0,0,0,3.8372,3.8416,3.8403,3.8408,3.8431,3.8458,3.8461,3.8445,3.842,3.8441,3.8436,3.8413,3.8468,3.8443,3.8448,3.848,3.8535,3.854,3.8545,3.8593,3.8604,3.8614,0,0,0,0,0,0,3.8418,3.8415,3.8401,3.8445,3.8453,3.845,3.8475,3.8457,3.8471,3.8466,3.8446,3.8446,3.8487,3.8487,3.8459,3.8533,3.8497,3.8504,3.8532,3.8542,3.8551,3.855,3.8416,0,0,0,0,0,3.8434,3.8456,3.8452,3.8492,3.8497,3.8486,3.8497,3.8484,3.849,3.8493,3.8491,3.8498,3.8517,3.853,3.8547,3.8597,3.8597,3.8622,3.863,3.8637,3.8643,3.8671,3.8682,3.8564,3.8564,3.8564,0,0,3.8466,3.8467,3.8482,3.8502,3.8505,3.8529,3.8488,3.8514,3.8532,3.8497,3.8532,3.8531,3.8538,3.8582,3.8601,3.8583,3.8676,3.8644,3.865,3.8651,3.8677,3.8688,3.8698,3.8567,3.8567,3.8566,0,0,3.8537,3.854,3.8574,3.8579,3.8586,3.8579,3.8588,3.8589,3.8587,3.8623,3.8597,3.8618,3.8651,3.8657,3.8664,3.874,3.8719,3.8746,3.8791,3.8818,3.8828,3.8836,3.8863,3.8873,3.8752,3.8752,3.8752,0,3.8575,3.861,3.8594,3.8622,3.8632,3.8603,3.8638,3.8643,3.8656,3.8663,3.8643,3.8685,3.8687,3.8733,3.8752,3.8758,3.8768,3.8745,3.8828,3.8836,3.8843,3.8869,3.8879,3.8755,3.8755,3.8755,3.8754,0,3.8658,3.8682,3.8709,3.8723,3.8735,3.8767,3.8756,3.8771,3.8758,3.8754,3.8791,3.8793,3.881,3.8821,3.8808,3.8865,3.8854,3.8831,3.8794,3.8858,3.8882,3.8891,3.876,3.8759,3.8758,3.8757,0,0,3.8755,3.8762,3.8772,3.8778,3.8785,3.8804,3.8835,3.8853,3.8866,3.8876,3.8902,3.8932,3.8911,3.892,3.8908,3.8932,3.8993,3.8906,3.8906,3.8922,3.9057,3.9073,3.9085,3.898,3.8981,3.8983,3.9056,0,3.8825,3.8878,3.8865,3.8918,3.8941,3.8915,3.8942,3.8949,3.8947,3.8966,3.8963,3.8984,3.8956,3.8961,3.8983,3.898,3.9019,3.8975,3.9003,3.9004,3.9001,3.9098,3.9115,3.9184,3.9066,3.9067,3.9068,0,3.8912,3.8927,3.8982,3.8987,3.8996,3.9021,3.9037,3.9056,3.9064,3.9061,3.9072,3.9056,3.9087,3.9051,3.9094,3.9064,3.9075,3.9076,3.9078,3.9079,3.9039,3.9101,3.9205,3.9216,3.9083,3.9082,3.9081,0,3.8978,3.9012,3.905,3.9056,3.9063,3.9081,3.9084,3.9091,3.9103,3.9118,3.9125,3.9143,3.9153,3.9167,3.9157,3.9132,3.9202,3.9165,3.92,3.92,3.9214,3.9213,3.9322,3.9223,3.9223,3.9222,3.9222,0,3.9057,3.9091,3.908,3.9103,3.9142,3.9127,3.9166,3.9167,3.9173,3.9196,3.9175,3.9197,3.9182,3.9203,3.9195,3.9232,3.9237,3.9235,3.9232,3.9237,3.9237,3.9243,3.9237,3.9225,3.9225,3.9224,3.9224,0,3.9136,3.913,3.9169,3.9173,3.9175,3.9203,3.9207,3.9228,3.9225,3.9255,3.9261,3.9255,3.9279,3.927,3.9296,3.929,3.9338,3.9329,3.9335,3.9333,3.9368,3.9365,3.9483,3.9498,3.939,3.9391,3.9392,0,3.9186,3.9213,3.922,3.9234,3.924,3.9263,3.9276,3.9264,3.9278,3.9291,3.9311,3.9334,3.9351,3.939,3.9388,3.9408,3.9399,3.944,3.9402,3.9406,3.94,3.9398,3.9401,3.9447,3.9448,3.9449,3.945,0,3.9276,3.9272,3.9291,3.9311,3.9327,3.9341,3.9354,3.9367,3.9355,3.9373,3.9398,3.9411,3.9438,3.946,3.9478,3.9482,3.9464,3.9462,3.9471,3.9475,3.9478,3.9477,3.9355,3.9459,3.9458,3.9457,3.9457,3.9457,3.9342,3.9365,3.9374,3.9397,3.9406,3.9418,3.9439,3.944,3.946,3.9481,3.9473,3.9502,3.9511,3.9534,3.954,3.9563,3.9547,3.956,3.9563,3.9566,3.9571,3.9475,3.9566,3.9566,3.9565,3.9565,3.9565,0,3.9431,3.9436,3.9457,3.9476,3.9495,3.9478,3.9491,3.9508,3.9533,3.9544,3.9562,3.9591,3.9613,3.9614,3.9635,3.9653,3.9646,3.9659,3.9657,3.9658,3.9584,3.9574,3.9665,3.9665,3.9665,3.9665,3.9665,3.9665,3.9479,3.9517,3.9515,3.9557,3.9562,3.959,3.96,3.9612,3.962,3.9654,3.9673,3.9673,3.968,3.9702,3.9722,3.9722,3.973,3.9747,3.9744,3.9674,3.9664,3.9654,3.9645,3.9749,3.9749,3.9816,3.9817,3.9817]},{"header":{"parameterUnit":"m.s-1","parameterCategory":1,"la1":30.2991,"la2":30.254,"lo1":-89.0895,"lo2":-89.0444,"dx":0.0017,"dy":0.0017,"nx":28,"ny":28,"refTime":"2022-12-23T15:00:00:Z","depth":0,"parameterNumber":3,"parameterNumberName":"V-component_of_WINDS"},"data":[0,0,0,0,0,0,0,0,0,0,0,0,0,0,0,0,0,0,0,0,0,0,0,0,0,0,0,0,0,0,0,0,0,0,0,0,0,0,0,0,0,0,0,0,0,0,0,0,0,0,0,0,0,0,0,0,0,0,-6.7452,-6.7454,0,-6.7599,-6.7601,-6.7602,-6.7584,-6.7582,-6.758,-6.7577,-6.7724,-6.773,-6.7736,0,0,0,0,0,0,0,0,0,0,0,0,0,-6.7154,-6.7159,-6.7452,-6.7454,-6.7456,-6.7599,-6.7601,-6.7603,-6.7585,-6.7582,-6.7579,-6.7576,-6.7722,-6.7729,-6.7737,0,0,0,0,0,0,0,0,0,0,0,0,0,-6.729,-6.7161,-6.7452,-6.7464,-6.7467,-6.7598,-6.7601,-6.7603,-6.7585,-6.7582,-6.7578,-6.7575,-6.772,-6.7729,-6.7738,-6.7866,0,0,-6.7766,-6.777,0,0,0,0,0,0,0,0,-6.7282,-6.7301,-6.746,-6.7463,-6.7467,-6.757,-6.755,-6.7691,-6.7586,-6.754,-6.7577,-6.7573,-6.7676,-6.7688,-6.7723,-6.7873,-6.7879,-6.7767,-6.7772,-6.7776,-6.7779,0,0,0,0,0,0,0,-6.7273,-6.7295,-6.751,-6.7463,-6.7467,-6.7462,-6.7477,-6.7576,-6.7626,-6.7544,-6.7543,-6.7561,-6.7676,-6.7715,-6.7727,-6.7881,-6.7766,-6.7775,-6.778,-6.7784,-6.8145,-6.8149,0,0,0,0,0,0,-6.7261,-6.7287,-6.7505,-6.7515,-6.7364,-6.747,-6.7487,-6.754,-6.7625,-6.7634,-6.7564,-6.7559,-6.7701,-6.7716,-6.7732,-6.7889,-6.7776,-6.7785,-6.779,-6.8141,-6.8146,-6.8151,0,0,0,0,0,0,-6.7254,-6.7281,-6.75,-6.7401,-6.7428,-6.7479,-6.7539,-6.7545,-6.7583,-6.764,-6.7648,-6.7594,-6.7698,-6.7719,-6.7833,-6.7894,-6.7789,-6.7797,-6.8136,-6.8143,-6.8148,-6.8204,0,0,0,0,0,0,-6.7246,-6.7278,-6.7328,-6.7402,-6.7434,-6.76,-6.7542,-6.755,-6.7599,-6.7595,-6.767,-6.7679,-6.7697,-6.782,-6.7843,-6.7905,-6.7804,-6.8131,-6.8139,-6.8146,-6.8197,-6.8211,-6.8224,0,0,0,0,0,-6.7235,-6.7336,-6.733,-6.7357,-6.7497,-6.7603,-6.7621,-6.7641,-6.7604,-6.7655,-6.7691,-6.7677,-6.7883,-6.7832,-6.7857,-6.7923,-6.8127,-6.8137,-6.8146,-6.8191,-6.8208,-6.8223,0,0,0,0,0,0,-6.7266,-6.7346,-6.7341,-6.7469,-6.753,-6.76,-6.7664,-6.7658,-6.773,-6.7723,-6.7743,-6.776,-6.7876,-6.7911,-6.7852,-6.8053,-6.8,-6.8015,-6.8026,-6.8043,-6.8056,-6.8046,-6.7812,0,0,0,0,0,-6.7288,-6.7369,-6.7434,-6.7541,-6.7572,-6.7613,-6.7659,-6.767,-6.7733,-6.7758,-6.7803,-6.7864,-6.7943,-6.7995,-6.807,-6.8201,-6.8218,-6.8259,-6.8273,-6.8283,-6.8296,-6.837,-6.839,-6.8181,-6.8181,-6.8181,0,0,-6.7334,-6.7388,-6.7437,-6.7548,-6.7597,-6.768,-6.7634,-6.7723,-6.7785,-6.7771,-6.7884,-6.7919,-6.7988,-6.8112,-6.8169,-6.8145,-6.8358,-6.8295,-6.8303,-6.831,-6.8382,-6.8401,-6.8419,-6.8187,-6.8186,-6.8185,0,0,-6.746,-6.7508,-6.7604,-6.7654,-6.7728,-6.7755,-6.7778,-6.785,-6.7874,-6.7987,-6.7979,-6.8052,-6.8187,-6.8238,-6.8281,-6.8429,-6.8419,-6.8453,-6.8522,-6.8594,-6.8611,-6.8626,-6.868,-6.8699,-6.8465,-6.8465,-6.8465,0,-6.7508,-6.7633,-6.7653,-6.7745,-6.7794,-6.7787,-6.7885,-6.7931,-6.8026,-6.8061,-6.8032,-6.8203,-6.8249,-6.8386,-6.8423,-6.8457,-6.8485,-6.8445,-6.8607,-6.8622,-6.8636,-6.8688,-6.8709,-6.8469,-6.8468,-6.8468,-6.8468,0,-6.7689,-6.7776,-6.7844,-6.7938,-6.7995,-6.8088,-6.8123,-6.8178,-6.8183,-6.8213,-6.8329,-6.8385,-6.8472,-6.8505,-6.851,-6.8644,-6.8627,-6.8602,-6.8551,-6.8659,-6.8709,-6.8729,-6.8474,-6.8473,-6.8472,-6.8471,0,0,-6.7839,-6.7944,-6.7969,-6.8012,-6.8095,-6.8162,-6.8256,-6.8343,-6.8391,-6.8457,-6.8536,-6.8652,-6.8631,-6.868,-6.8691,-6.8754,-6.887,-6.8722,-6.8724,-6.8749,-6.9023,-6.9042,-6.9065,-6.8863,-6.8867,-6.887,-6.9017,0,-6.7974,-6.8141,-6.8163,-6.8311,-6.8393,-6.8388,-6.8469,-6.8529,-6.8559,-6.8633,-6.8665,-6.8748,-6.8713,-6.8743,-6.8805,-6.8843,-6.8925,-6.8832,-6.8938,-6.8942,-6.8923,-6.909,-6.911,-6.9247,-6.9037,-6.904,-6.9042,0,-6.8155,-6.8229,-6.8385,-6.8459,-6.8494,-6.8567,-6.865,-6.872,-6.8787,-6.8805,-6.8862,-6.8865,-6.8962,-6.8906,-6.904,-6.8976,-6.902,-6.9045,-6.9051,-6.9063,-6.9,-6.9108,-6.929,-6.9312,-6.9073,-6.907,-6.9068,0,-6.8252,-6.8389,-6.8501,-6.8538,-6.8626,-6.8678,-6.8717,-6.8781,-6.8833,-6.8905,-6.8939,-6.902,-6.9066,-6.9129,-6.9154,-6.9111,-6.9288,-6.9233,-6.9306,-6.9306,-6.9345,-6.9342,-6.9538,-6.937,-6.937,-6.937,-6.9369,0,-6.8402,-6.8499,-6.8546,-6.8615,-6.8724,-6.8747,-6.8854,-6.889,-6.8947,-6.9024,-6.9023,-6.9094,-6.9123,-6.9199,-6.9219,-6.9329,-6.9348,-6.9366,-6.9371,-6.9367,-6.9365,-6.9398,-6.939,-6.9375,-6.9374,-6.9373,-6.9372,0,-6.8529,-6.8564,-6.8687,-6.876,-6.8781,-6.8858,-6.8921,-6.8988,-6.9018,-6.9115,-6.9138,-6.9186,-6.9275,-6.9307,-6.9415,-6.9429,-6.9556,-6.9552,-6.9534,-6.9536,-6.9608,-6.9601,-6.9833,-6.9866,-6.9674,-6.9676,-6.9678,0,-6.8623,-6.8698,-6.8781,-6.8832,-6.8874,-6.8957,-6.901,-6.9036,-6.9092,-6.9176,-6.9233,-6.9322,-6.9396,-6.9539,-6.9582,-6.9666,-6.9664,-6.974,-6.9677,-6.9672,-6.9668,-6.9664,-6.9673,-6.9752,-6.9754,-6.9755,-6.9757,0,-6.8789,-6.8803,-6.8881,-6.8966,-6.9031,-6.9099,-6.9164,-6.9206,-6.9242,-6.9305,-6.9397,-6.9454,-6.9566,-6.9655,-6.9741,-6.978,-6.9775,-6.9776,-6.9798,-6.9796,-6.9784,-6.9794,-6.9568,-6.9771,-6.977,-6.9769,-6.9768,-6.9767,-6.8904,-6.8971,-6.904,-6.9127,-6.918,-6.9242,-6.9309,-6.9349,-6.9427,-6.9521,-6.9531,-6.9631,-6.9698,-6.9813,-6.9856,-6.9935,-6.9914,-6.9945,-6.9953,-6.9961,-6.9967,-6.977,-6.995,-6.9949,-6.9949,-6.9949,-6.9949,0,-6.9071,-6.9115,-6.9196,-6.9289,-6.9358,-6.9348,-6.9421,-6.9479,-6.9568,-6.9631,-6.9704,-6.9811,-6.9898,-6.9949,-7.0036,-7.0089,-7.009,-7.0112,-7.0109,-7.0118,-6.998,-6.9953,-7.011,-7.011,-7.011,-7.011,-7.011,-7.011,-6.9166,-6.928,-6.9302,-6.9442,-6.9486,-6.9586,-6.9628,-6.9686,-6.9737,-6.9857,-6.993,-6.9963,-7.0022,-7.0114,-7.0193,-7.0206,-7.0239,-7.0264,-7.0275,-7.0144,-7.0128,-7.0112,-7.0087,-7.027,-7.027,-7.0407,-7.0408,-7.0409]}]]